^^
Station Historical Data
Daily Summary for January 4, 2018 Units:  English    Metric   Both
« Previous Day
Next Day »
Daily Weekly Monthly Yearly Custom
  High: Low: Average:
Temperature: 94.6 °F 69.3 °F 79.4 °F
Dew Point: 52.9 °F 12.7 °F 42.1 °F
Humidity: 47% 8% 29%
Wind Speed: 16.1mph 0.0mph 3.4mph
Wind Gust: 21.0mph - -
Wind- - ESE
Pressure: 30.24 in 29.65 in -
Precipitation: 0.00 in    
Historical Graphs
 
 
Tabular Data for January 4, 2018
Time Temperature Dew Point Pressure Wind Wind Speed Wind Gust Humidity Rainfall Rate (Hourly) solar Conditions
00:04 79.2 °F 12.7 °F 30.20 in SSE 6.0 mph 10.0 mph 8% 0.00 in 0.0 W/m2
00:10 79.0 °F 15.3 °F 30.20 in SE 6.0 mph 9.0 mph 9% 0.00 in 0.0 W/m2
00:11 79.0 °F 15.3 °F 30.20 in SSE 4.0 mph 10.0 mph 9% 0.00 in 0.0 W/m2
00:16 79.0 °F 15.3 °F 30.20 in ESE 4.0 mph 6.0 mph 9% 0.00 in 0.0 W/m2
00:21 78.6 °F 15.1 °F 30.20 in ESE 4.0 mph 8.0 mph 9% 0.00 in 0.0 W/m2
00:22 78.6 °F 15.1 °F 30.20 in SE 4.0 mph 9.0 mph 9% 0.00 in 0.0 W/m2
00:27 78.6 °F 15.1 °F 30.20 in SE 4.9 mph 9.0 mph 9% 0.00 in 0.0 W/m2
00:32 78.4 °F 14.9 °F 30.20 in ESE 2.9 mph 9.0 mph 9% 0.00 in 0.0 W/m2
00:36 78.4 °F 14.9 °F 30.20 in SE 2.9 mph 8.0 mph 9% 0.00 in 0.0 W/m2
00:42 78.4 °F 14.9 °F 30.19 in ESE 2.9 mph 8.0 mph 9% 0.00 in 0.0 W/m2
00:47 78.4 °F 14.9 °F 30.19 in SE 2.0 mph 8.0 mph 9% 0.00 in 0.0 W/m2
00:50 78.4 °F 14.9 °F 30.19 in SSE 2.9 mph 9.0 mph 9% 0.00 in 0.0 W/m2
00:55 78.3 °F 14.7 °F 30.19 in SE 6.0 mph 11.0 mph 9% 0.00 in 0.0 W/m2
01:01 78.3 °F 14.7 °F 30.19 in ESE 4.0 mph 9.0 mph 9% 0.00 in 0.0 W/m2
01:11 78.3 °F 17.2 °F 30.19 in SSE 2.9 mph 10.0 mph 10% 0.00 in 0.0 W/m2
01:16 78.3 °F 17.2 °F 30.19 in ESE 10.1 mph 12.0 mph 10% 0.00 in 0.0 W/m2
01:18 78.3 °F 17.2 °F 30.19 in ESE 4.0 mph 11.0 mph 10% 0.00 in 0.0 W/m2
01:23 78.3 °F 17.2 °F 30.19 in ESE 4.0 mph 8.0 mph 10% 0.00 in 0.0 W/m2
01:28 78.3 °F 17.2 °F 30.19 in SE 8.1 mph 10.0 mph 10% 0.00 in 0.0 W/m2
01:34 78.3 °F 17.2 °F 30.19 in SE 2.9 mph 9.0 mph 10% 0.00 in 0.0 W/m2
01:39 78.1 °F 19.2 °F 30.19 in SE 2.9 mph 7.0 mph 11% 0.00 in 0.0 W/m2
01:44 77.9 °F 19.2 °F 30.18 in SE 2.9 mph 11.0 mph 11% 0.00 in 0.0 W/m2
01:49 77.7 °F 19.0 °F 30.18 in SE 2.9 mph 8.0 mph 11% 0.00 in 0.0 W/m2
01:50 77.7 °F 19.0 °F 30.18 in ESE 0.9 mph 7.0 mph 11% 0.00 in 0.0 W/m2
01:57 77.5 °F 18.9 °F 30.18 in East 4.0 mph 6.0 mph 11% 0.00 in 0.0 W/m2
02:02 77.5 °F 20.8 °F 30.18 in East 2.9 mph 10.0 mph 12% 0.00 in 0.0 W/m2
02:07 77.4 °F 20.8 °F 30.18 in ENE 4.9 mph 7.0 mph 12% 0.00 in 0.0 W/m2
02:08 77.4 °F 20.8 °F 30.18 in SSE 2.9 mph 7.0 mph 12% 0.00 in 0.0 W/m2
02:14 77.2 °F 20.7 °F 30.18 in SSE 2.0 mph 3.0 mph 12% 0.00 in 0.0 W/m2
02:20 76.8 °F 22.3 °F 30.18 in SE 4.0 mph 4.0 mph 13% 0.00 in 0.0 W/m2
02:27 76.6 °F 23.9 °F 30.18 in ESE 0.9 mph 2.0 mph 14% 0.00 in 0.0 W/m2
02:32 76.5 °F 23.7 °F 30.18 in SSE 2.9 mph 9.0 mph 14% 0.00 in 0.0 W/m2
02:42 75.9 °F 25.0 °F 30.17 in Calm   2.0 mph 15% 0.00 in 0.0 W/m2
02:48 75.7 °F 24.8 °F 30.17 in Calm   4.0 mph 15% 0.00 in 0.0 W/m2
02:53 75.4 °F 24.4 °F 30.17 in Calm   7.0 mph 15% 0.00 in 0.0 W/m2
02:54 75.2 °F 24.4 °F 30.17 in East 0.9 mph 3.0 mph 15% 0.00 in 0.0 W/m2
02:59 74.8 °F 25.7 °F 30.17 in Calm   4.0 mph 16% 0.00 in 0.0 W/m2
03:04 74.5 °F 25.3 °F 30.17 in East 2.0 mph 5.0 mph 16% 0.00 in 0.0 W/m2
03:10 74.3 °F 26.6 °F 30.17 in ESE 2.9 mph 5.0 mph 17% 0.00 in 0.0 W/m2
03:15 74.1 °F 26.6 °F 30.17 in East 2.0 mph 6.0 mph 17% 0.00 in 0.0 W/m2
03:16 74.1 °F 26.6 °F 30.17 in East 0.9 mph 5.0 mph 17% 0.00 in 0.0 W/m2
03:21 73.9 °F 27.7 °F 30.17 in East 2.9 mph 6.0 mph 18% 0.00 in 0.0 W/m2
03:26 73.9 °F 27.7 °F 30.17 in ENE 2.0 mph 8.0 mph 18% 0.00 in 0.0 W/m2
03:31 73.9 °F 27.7 °F 30.16 in NNE 0.9 mph 7.0 mph 18% 0.00 in 0.0 W/m2
03:36 73.8 °F 27.7 °F 30.16 in ENE 4.0 mph 4.0 mph 18% 0.00 in 0.0 W/m2
03:38 73.8 °F 28.9 °F 30.16 in East 2.9 mph 6.0 mph 19% 0.00 in 0.0 W/m2
03:43 73.6 °F 28.8 °F 30.16 in ESE 0.9 mph 5.0 mph 19% 0.00 in 0.0 W/m2
03:45 73.6 °F 28.8 °F 30.16 in NE 2.0 mph 5.0 mph 19% 0.00 in 0.0 W/m2
03:51 73.6 °F 28.8 °F 30.16 in Calm   4.0 mph 19% 0.00 in 0.0 W/m2
03:56 73.6 °F 28.8 °F 30.16 in Calm   10.0 mph 19% 0.00 in 0.0 W/m2
04:01 73.6 °F 28.8 °F 30.16 in NNE 4.0 mph 9.0 mph 19% 0.00 in 0.0 W/m2
04:06 73.8 °F 28.9 °F 30.16 in NE 6.0 mph 7.0 mph 19% 0.00 in 0.0 W/m2
04:11 73.8 °F 28.9 °F 30.16 in East 4.0 mph 6.0 mph 19% 0.00 in 0.0 W/m2
04:14 73.8 °F 30.2 °F 30.16 in East 8.1 mph 8.1 mph 20% 0.00 in 0.0 W/m2
04:19 73.8 °F 30.2 °F 30.16 in East 2.0 mph 7.0 mph 20% 0.00 in 0.0 W/m2
04:24 73.6 °F 30.0 °F 30.16 in NE 2.0 mph 14.0 mph 20% 0.00 in 0.0 W/m2
04:29 73.6 °F 30.0 °F 30.16 in ENE 4.9 mph 11.0 mph 20% 0.00 in 0.0 W/m2
04:30 73.6 °F 30.0 °F 30.16 in Calm   9.0 mph 20% 0.00 in 0.0 W/m2
04:36 73.6 °F 31.3 °F 30.16 in SE 4.9 mph 8.0 mph 21% 0.00 in 0.0 W/m2
04:41 73.6 °F 32.4 °F 30.16 in NE 4.9 mph 7.0 mph 22% 0.00 in 0.0 W/m2
04:46 73.6 °F 32.4 °F 30.16 in ENE 2.9 mph 11.0 mph 22% 0.00 in 0.0 W/m2
04:51 73.4 °F 33.3 °F 30.17 in ENE 6.0 mph 8.0 mph 23% 0.00 in 0.0 W/m2
04:52 73.4 °F 33.3 °F 30.17 in ENE 4.9 mph 7.0 mph 23% 0.00 in 0.0 W/m2
04:56 73.4 °F 33.3 °F 30.16 in ESE 2.0 mph 5.0 mph 23% 0.00 in 0.0 W/m2
05:01 73.4 °F 34.3 °F 30.17 in ESE 2.0 mph 15.0 mph 24% 0.00 in 0.0 W/m2
05:02 73.2 °F 34.3 °F 30.17 in East 8.9 mph 14.0 mph 24% 0.00 in 0.0 W/m2
05:13 73.2 °F 36.3 °F 30.17 in SSW 2.0 mph 15.0 mph 26% 0.00 in 0.0 W/m2
05:18 73.0 °F 37.0 °F 30.17 in NE 6.9 mph 8.0 mph 27% 0.00 in 0.0 W/m2
05:23 72.9 °F 37.8 °F 30.17 in ENE 4.9 mph 11.0 mph 28% 0.00 in 0.0 W/m2
05:28 72.7 °F 38.7 °F 30.17 in East 2.9 mph 12.0 mph 29% 0.00 in 0.0 W/m2
05:29 72.7 °F 38.7 °F 30.17 in NE 12.1 mph 12.1 mph 29% 0.00 in 0.0 W/m2
05:34 72.3 °F 39.2 °F 30.17 in SSE 2.9 mph 11.0 mph 30% 0.00 in 0.0 W/m2
05:37 72.3 °F 39.2 °F 30.17 in ENE 4.0 mph 7.0 mph 30% 0.00 in 0.0 W/m2
05:39 72.1 °F 39.0 °F 30.17 in East 4.0 mph 8.0 mph 30% 0.00 in 0.0 W/m2
05:44 72.0 °F 39.7 °F 30.17 in ESE 4.9 mph 6.0 mph 31% 0.00 in 0.0 W/m2
05:50 71.6 °F 39.4 °F 30.17 in NE 2.0 mph 11.0 mph 31% 0.00 in 0.0 W/m2
05:55 71.4 °F 40.1 °F 30.18 in SE 4.0 mph 14.0 mph 32% 0.00 in 0.0 W/m2
05:57 71.4 °F 40.1 °F 30.17 in East 8.9 mph 12.0 mph 32% 0.00 in 0.0 W/m2
06:03 71.2 °F 39.9 °F 30.18 in East 0.9 mph 12.0 mph 32% 0.00 in 0.0 W/m2
06:08 71.1 °F 40.5 °F 30.18 in ENE 2.0 mph 10.0 mph 33% 0.00 in 0.0 W/m2
06:13 70.9 °F 41.2 °F 29.71 in SE 2.0 mph 12.0 mph 34% 0.00 in 0.0 W/m2
06:15 70.9 °F 41.2 °F 29.72 in ENE 2.0 mph 16.0 mph 34% 0.00 in 0.0 W/m2
06:17 70.7 °F 41.0 °F 30.19 in East 4.9 mph 9.0 mph 34% 0.00 in 5.0 W/m2
06:19 70.5 °F 40.8 °F 30.19 in East 2.0 mph 9.0 mph 34% 0.00 in 5.0 W/m2
06:20 70.5 °F 40.8 °F 30.19 in ESE 0.9 mph 4.0 mph 34% 0.00 in 5.0 W/m2
06:22 70.5 °F 40.8 °F 30.19 in NE 2.0 mph 9.0 mph 34% 0.00 in 7.0 W/m2
06:23 70.5 °F 40.8 °F 30.19 in East 0.9 mph 9.0 mph 34% 0.00 in 5.0 W/m2
06:25 70.3 °F 41.4 °F 30.19 in ESE 2.0 mph 10.0 mph 35% 0.00 in 7.0 W/m2
06:26 70.3 °F 41.4 °F 30.19 in NE 4.0 mph 10.0 mph 35% 0.00 in 9.0 W/m2
06:31 70.2 °F 41.2 °F 30.19 in NE 2.9 mph 11.0 mph 35% 0.00 in 11.0 W/m2
06:32 70.0 °F 41.0 °F 30.19 in NNE 0.9 mph 9.0 mph 35% 0.00 in 11.0 W/m2
06:36 69.8 °F 41.7 °F 30.19 in SE 2.0 mph 8.0 mph 36% 0.00 in 12.0 W/m2
06:38 69.8 °F 41.7 °F 30.19 in ESE 4.0 mph 11.0 mph 36% 0.00 in 12.0 W/m2
06:48 69.4 °F 42.8 °F 30.20 in NNE 2.9 mph 11.0 mph 38% 0.00 in 16.0 W/m2
06:49 69.4 °F 42.8 °F 30.20 in SE 4.9 mph 6.0 mph 38% 0.00 in 16.0 W/m2
06:51 69.4 °F 42.8 °F 30.20 in East 4.9 mph 12.0 mph 38% 0.00 in 16.0 W/m2
06:57 69.4 °F 42.8 °F 30.20 in NE 4.9 mph 8.0 mph 38% 0.00 in 18.0 W/m2
07:02 69.3 °F 43.2 °F 30.21 in NNE 4.0 mph 12.0 mph 39% 0.00 in 19.0 W/m2
07:07 69.3 °F 43.9 °F 30.21 in NE 4.9 mph 8.0 mph 40% 0.00 in 19.0 W/m2
07:11 69.3 °F 43.9 °F 30.22 in North 2.0 mph 11.0 mph 40% 0.00 in 21.0 W/m2
07:16 69.3 °F 43.9 °F 30.22 in NE 0.9 mph 9.0 mph 40% 0.00 in 21.0 W/m2
07:21 69.4 °F 44.8 °F 30.22 in ENE 8.9 mph 12.0 mph 41% 0.00 in 23.0 W/m2
07:23 69.4 °F 44.8 °F 30.22 in ENE 2.9 mph 12.0 mph 41% 0.00 in 23.0 W/m2
07:28 69.4 °F 45.3 °F 30.23 in ENE 0.9 mph 10.0 mph 42% 0.00 in 25.0 W/m2
07:33 69.6 °F 45.5 °F 29.76 in ENE 8.1 mph 11.0 mph 42% 0.00 in 26.0 W/m2
07:39 69.6 °F 45.5 °F 30.23 in ENE 0.9 mph 8.0 mph 42% 0.00 in 26.0 W/m2
07:45 70.0 °F 46.4 °F 30.23 in ENE 4.0 mph 6.0 mph 43% 0.00 in 39.0 W/m2
07:51 70.2 °F 46.6 °F 30.23 in East 2.9 mph 4.0 mph 43% 0.00 in 230.0 W/m2
07:56 70.5 °F 46.9 °F 30.23 in NE 4.9 mph 10.0 mph 43% 0.00 in 371.0 W/m2
07:59 71.1 °F 46.8 °F 29.76 in Calm   9.0 mph 42% 0.00 in 380.0 W/m2
08:01 71.2 °F 46.9 °F 30.23 in Calm   5.0 mph 42% 0.00 in 390.0 W/m2
08:07 72.0 °F 47.7 °F 30.23 in East 2.0 mph 9.0 mph 42% 0.00 in 413.0 W/m2
08:12 72.7 °F 48.2 °F 30.24 in ESE 4.0 mph 7.0 mph 42% 0.00 in 432.0 W/m2
08:17 73.2 °F 48.0 °F 30.24 in NE 2.0 mph 8.0 mph 41% 0.00 in 454.0 W/m2
08:22 73.9 °F 48.7 °F 30.24 in NE 4.0 mph 8.0 mph 41% 0.00 in 473.0 W/m2
08:28 74.5 °F 49.3 °F 30.24 in North 4.0 mph 6.0 mph 41% 0.00 in 494.0 W/m2
08:33 75.0 °F 49.6 °F 30.23 in Calm   7.0 mph 41% 0.00 in 513.0 W/m2
08:36 75.6 °F 50.2 °F 30.23 in NE 0.9 mph 4.0 mph 41% 0.00 in 522.0 W/m2
08:37 75.6 °F 50.2 °F 30.23 in NE 2.0 mph 4.0 mph 41% 0.00 in 529.0 W/m2
08:38 75.7 °F 50.4 °F 30.23 in SE 4.9 mph 9.0 mph 41% 0.00 in 533.0 W/m2
08:43 76.6 °F 49.8 °F 30.23 in ENE 2.9 mph 9.0 mph 39% 0.00 in 552.0 W/m2
08:48 76.8 °F 50.7 °F 30.24 in ENE 6.0 mph 7.0 mph 40% 0.00 in 570.0 W/m2
08:52 77.2 °F 50.4 °F 30.23 in NE 2.9 mph 8.0 mph 39% 0.00 in 580.0 W/m2
08:53 77.4 °F 50.5 °F 30.23 in ESE 2.0 mph 8.0 mph 39% 0.00 in 585.0 W/m2
08:58 77.4 °F 50.5 °F 30.23 in ESE 6.9 mph 9.0 mph 39% 0.00 in 605.0 W/m2
09:06 78.1 °F 50.4 °F 30.23 in NNE 4.9 mph 10.0 mph 38% 0.00 in 631.0 W/m2
09:07 78.1 °F 50.4 °F 30.23 in NE 2.9 mph 8.0 mph 38% 0.00 in 635.0 W/m2
09:11 78.4 °F 50.0 °F 30.23 in NNW 4.9 mph 10.0 mph 37% 0.00 in 649.0 W/m2
09:16 79.0 °F 50.5 °F 30.23 in North 0.9 mph 8.0 mph 37% 0.00 in 666.0 W/m2
09:19 79.2 °F 50.7 °F 30.23 in East 6.0 mph 6.0 mph 37% 0.00 in 677.0 W/m2
09:25 79.9 °F 50.5 °F 30.23 in NNE 8.1 mph 10.0 mph 36% 0.00 in 694.0 W/m2
09:30 80.2 °F 50.2 °F 30.23 in ENE 6.0 mph 12.0 mph 35% 0.00 in 712.0 W/m2
09:35 80.2 °F 50.2 °F 30.23 in NNW 4.9 mph 11.0 mph 35% 0.00 in 728.0 W/m2
09:40 80.4 °F 50.2 °F 30.23 in NE 8.9 mph 9.0 mph 35% 0.00 in 742.0 W/m2
09:42 80.8 °F 50.5 °F 30.23 in NNW 8.9 mph 16.0 mph 35% 0.00 in 747.0 W/m2
09:43 80.8 °F 50.5 °F 30.23 in ENE 6.0 mph 9.0 mph 35% 0.00 in 751.0 W/m2
09:46 80.8 °F 50.5 °F 30.23 in ENE 6.9 mph 10.0 mph 35% 0.00 in 761.0 W/m2
09:52 81.3 °F 51.1 °F 30.22 in ENE 2.9 mph 8.0 mph 35% 0.00 in 779.0 W/m2
09:57 81.7 °F 50.5 °F 30.22 in NNE 6.0 mph 12.0 mph 34% 0.00 in 795.0 W/m2
10:02 81.9 °F 50.7 °F 30.22 in NNE 6.0 mph 13.0 mph 34% 0.00 in 810.0 W/m2
10:08 82.0 °F 50.9 °F 30.22 in ENE 4.9 mph 10.0 mph 34% 0.00 in 826.0 W/m2
10:13 82.6 °F 50.5 °F 29.75 in NNW 6.0 mph 11.0 mph 33% 0.00 in 847.0 W/m2
10:19 82.8 °F 49.8 °F 30.22 in ENE 11.0 mph 11.0 mph 32% 0.00 in 865.0 W/m2
10:23 82.9 °F 50.9 °F 30.22 in ESE 4.0 mph 13.0 mph 33% 0.00 in 874.0 W/m2
10:24 82.9 °F 50.9 °F 30.22 in ENE 12.1 mph 12.1 mph 33% 0.00 in 875.0 W/m2
10:30 83.1 °F 51.1 °F 30.22 in North 6.9 mph 9.0 mph 33% 0.00 in 896.0 W/m2
10:36 83.8 °F 50.0 °F 30.22 in NNW 4.9 mph 8.0 mph 31% 0.00 in 281.0 W/m2
10:38 83.8 °F 50.0 °F 30.22 in ENE 4.9 mph 6.0 mph 31% 0.00 in 972.0 W/m2
10:44 84.4 °F 51.3 °F 30.22 in East 4.0 mph 6.0 mph 32% 0.00 in 963.0 W/m2
10:51 84.4 °F 47.7 °F 30.21 in NE 4.9 mph 6.0 mph 28% 0.00 in 1009.0 W/m2
11:02 84.7 °F 48.9 °F 30.22 in North 4.9 mph 11.0 mph 29% 0.00 in 793.0 W/m2
11:07 85.3 °F 49.5 °F 30.22 in North 4.9 mph 10.0 mph 29% 0.00 in 206.0 W/m2
11:12 84.9 °F 48.2 °F 30.22 in North 11.0 mph 11.0 mph 28% 0.00 in 218.0 W/m2
11:13 84.7 °F 48.0 °F 30.22 in North 4.9 mph 11.0 mph 28% 0.00 in 186.0 W/m2
11:18 84.2 °F 48.6 °F 30.22 in NNE 4.0 mph 11.0 mph 29% 0.00 in 1130.0 W/m2
11:23 84.6 °F 49.6 °F 30.22 in ENE 4.9 mph 8.0 mph 30% 0.00 in 1123.0 W/m2
11:28 85.6 °F 48.7 °F 30.21 in NE 6.9 mph 10.0 mph 28% 0.00 in 1174.0 W/m2
11:33 86.2 °F 48.2 °F 30.21 in North 4.9 mph 16.0 mph 27% 0.00 in 1225.0 W/m2
11:40 86.2 °F 48.2 °F 30.21 in NNE 4.0 mph 16.0 mph 27% 0.00 in 1153.0 W/m2
11:42 85.8 °F 46.9 °F 30.21 in ENE 6.9 mph 10.0 mph 26% 0.00 in 244.0 W/m2
11:47 85.6 °F 47.8 °F 30.21 in North 11.0 mph 17.0 mph 27% 0.00 in 1232.0 W/m2
11:52 86.2 °F 48.2 °F 30.21 in NNE 0.9 mph 11.0 mph 27% 0.00 in 1195.0 W/m2
11:56 86.5 °F 47.7 °F 30.21 in North 4.0 mph 7.0 mph 26% 0.00 in 1179.0 W/m2
12:01 87.4 °F 47.3 °F 30.20 in ESE 4.0 mph 4.0 mph 25% 0.00 in 1190.0 W/m2
12:07 88.0 °F 45.5 °F 30.20 in NNW 2.0 mph 5.0 mph 23% 0.00 in 1209.0 W/m2
12:10 88.2 °F 45.7 °F 30.21 in NNE 4.0 mph 16.0 mph 23% 0.00 in 1234.0 W/m2
12:16 88.3 °F 45.9 °F 30.21 in North 8.9 mph 15.0 mph 23% 0.00 in 1206.0 W/m2
12:21 88.2 °F 45.7 °F 30.21 in East 8.1 mph 12.0 mph 23% 0.00 in 185.0 W/m2
12:26 87.3 °F 45.0 °F 30.21 in NNE 6.9 mph 11.0 mph 23% 0.00 in 306.0 W/m2
12:30 87.1 °F 44.8 °F 30.20 in NE 2.9 mph 12.0 mph 23% 0.00 in 1187.0 W/m2
12:31 87.3 °F 45.0 °F 30.20 in NNW 4.0 mph 12.0 mph 23% 0.00 in 1188.0 W/m2
12:38 87.4 °F 45.1 °F 30.20 in East 8.9 mph 9.0 mph 23% 0.00 in 162.0 W/m2
12:46 86.7 °F 44.4 °F 30.19 in East 6.0 mph 17.0 mph 23% 0.00 in 1252.0 W/m2
12:51 86.7 °F 44.4 °F 30.20 in NE 4.9 mph 12.0 mph 23% 0.00 in 192.0 W/m2
12:57 86.5 °F 43.2 °F 30.19 in Calm   4.0 mph 22% 0.00 in 1121.0 W/m2
13:04 87.8 °F 44.2 °F 30.19 in North 4.9 mph 10.0 mph 22% 0.00 in 1185.0 W/m2
13:06 88.0 °F 43.2 °F 30.19 in NW 6.0 mph 12.0 mph 21% 0.00 in 1187.0 W/m2
13:12 88.9 °F 43.9 °F 30.19 in NE 6.9 mph 8.0 mph 21% 0.00 in 207.0 W/m2
13:18 89.2 °F 43.0 °F 30.19 in SE 2.9 mph 8.0 mph 20% 0.00 in 1185.0 W/m2
13:24 89.1 °F 42.8 °F 30.18 in NNW 0.9 mph 7.0 mph 20% 0.00 in 174.0 W/m2
13:26 89.1 °F 42.8 °F 30.18 in ESE 0.9 mph 6.0 mph 20% 0.00 in 174.0 W/m2
13:31 89.4 °F 41.7 °F 30.18 in ESE 4.9 mph 7.0 mph 19% 0.00 in 301.0 W/m2
13:36 89.4 °F 41.7 °F 30.18 in North 0.9 mph 3.0 mph 19% 0.00 in 237.0 W/m2
13:41 89.6 °F 43.2 °F 30.18 in NE 6.9 mph 7.0 mph 20% 0.00 in 346.0 W/m2
13:43 89.8 °F 42.1 °F 30.18 in Calm   11.0 mph 19% 0.00 in 1137.0 W/m2
13:46 90.0 °F 42.3 °F 30.17 in ESE 6.9 mph 8.0 mph 19% 0.00 in 1125.0 W/m2
13:51 90.7 °F 41.4 °F 30.17 in SE 4.0 mph 8.0 mph 18% 0.00 in 1106.0 W/m2
13:52 90.7 °F 42.8 °F 30.17 in East 0.9 mph 7.0 mph 19% 0.00 in 1085.0 W/m2
13:53 90.7 °F 42.8 °F 30.17 in North 2.9 mph 9.0 mph 19% 0.00 in 1085.0 W/m2
13:59 91.0 °F 40.1 °F 30.17 in SE 2.0 mph 12.0 mph 17% 0.00 in 1079.0 W/m2
14:05 91.0 °F 38.7 °F 30.17 in ENE 2.0 mph 10.0 mph 16% 0.00 in 1083.0 W/m2
14:11 91.6 °F 39.0 °F 30.16 in NNE 2.0 mph 5.0 mph 16% 0.00 in 1085.0 W/m2
14:17 91.9 °F 37.8 °F 30.16 in Calm   5.0 mph 15% 0.00 in 1074.0 W/m2
14:21 92.1 °F 37.8 °F 30.16 in Calm   5.0 mph 15% 0.00 in 1081.0 W/m2
14:26 92.1 °F 39.6 °F 30.16 in SW 2.0 mph 3.0 mph 16% 0.00 in 1116.0 W/m2
14:31 92.1 °F 41.0 °F 30.15 in NNW 0.9 mph 9.0 mph 17% 0.00 in 1097.0 W/m2
14:36 92.7 °F 41.5 °F 30.16 in NNE 4.0 mph 12.0 mph 17% 0.00 in 1086.0 W/m2
14:45 92.8 °F 41.5 °F 30.15 in NW 4.9 mph 9.0 mph 17% 0.00 in 1028.0 W/m2
14:51 93.2 °F 41.9 °F 30.15 in SE 2.9 mph 5.0 mph 17% 0.00 in 1030.0 W/m2
14:56 93.6 °F 40.6 °F 30.14 in SE 4.9 mph 6.0 mph 16% 0.00 in 1007.0 W/m2
15:01 93.7 °F 39.2 °F 30.15 in NE 2.0 mph 9.0 mph 15% 0.00 in 998.0 W/m2
15:02 93.7 °F 39.2 °F 30.15 in ENE 0.9 mph 7.0 mph 15% 0.00 in 997.0 W/m2
15:07 94.3 °F 39.6 °F 30.14 in Calm   4.0 mph 15% 0.00 in 1002.0 W/m2
15:11 94.3 °F 39.6 °F 30.14 in NNE 2.9 mph 7.0 mph 15% 0.00 in 979.0 W/m2
15:12 94.3 °F 39.6 °F 30.14 in NNW 0.9 mph 6.0 mph 15% 0.00 in 984.0 W/m2
15:17 94.5 °F 39.7 °F 30.14 in NNE 4.9 mph 10.0 mph 15% 0.00 in 965.0 W/m2
15:24 94.5 °F 39.7 °F 30.14 in NW 0.9 mph 5.0 mph 15% 0.00 in 923.0 W/m2
15:27 94.6 °F 41.5 °F 30.14 in SE 6.0 mph 12.0 mph 16% 0.00 in 912.0 W/m2
15:32 94.6 °F 38.1 °F 30.14 in NNE 8.9 mph 9.0 mph 14% 0.00 in 127.0 W/m2
15:38 93.7 °F 39.2 °F 30.13 in East 0.9 mph 3.0 mph 15% 0.00 in 911.0 W/m2
15:43 93.7 °F 40.8 °F 30.13 in NE 4.9 mph 10.0 mph 16% 0.00 in 891.0 W/m2
15:53 93.7 °F 42.3 °F 30.13 in SE 2.9 mph 4.0 mph 17% 0.00 in 856.0 W/m2
15:59 93.9 °F 44.1 °F 30.12 in NE 2.9 mph 10.0 mph 18% 0.00 in 816.0 W/m2
16:04 93.4 °F 42.1 °F 30.12 in NNE 4.0 mph 9.0 mph 17% 0.00 in 111.0 W/m2
16:09 92.7 °F 43.0 °F 30.12 in NE 4.0 mph 7.0 mph 18% 0.00 in 786.0 W/m2
16:14 92.7 °F 41.5 °F 30.12 in NE 0.9 mph 4.0 mph 17% 0.00 in 786.0 W/m2
16:21 93.4 °F 43.5 °F 30.12 in ESE 2.9 mph 11.0 mph 18% 0.00 in 809.0 W/m2
16:28 93.9 °F 44.1 °F 30.12 in NE 2.0 mph 7.0 mph 18% 0.00 in 197.0 W/m2
16:33 93.7 °F 43.9 °F 30.12 in NE 0.9 mph 9.0 mph 18% 0.00 in 828.0 W/m2
16:40 93.9 °F 42.4 °F 30.12 in NNE 4.9 mph 7.0 mph 17% 0.00 in 789.0 W/m2
16:41 93.7 °F 42.3 °F 30.12 in ESE 0.9 mph 7.0 mph 17% 0.00 in 789.0 W/m2
16:42 93.7 °F 43.9 °F 30.12 in East 2.9 mph 12.0 mph 18% 0.00 in 192.0 W/m2
16:47 92.5 °F 48.0 °F 30.12 in North 4.0 mph 17.0 mph 22% 0.00 in 656.0 W/m2
16:51 90.9 °F 48.0 °F 30.12 in ENE 4.0 mph 16.0 mph 23% 0.00 in 120.0 W/m2
16:52 90.3 °F 48.6 °F 30.12 in SE 4.9 mph 10.0 mph 24% 0.00 in 121.0 W/m2
16:57 88.0 °F 47.8 °F 30.12 in SSE 8.1 mph 16.0 mph 25% 0.00 in 120.0 W/m2
17:03 86.2 °F 48.2 °F 30.12 in NE 15.0 mph 15.0 mph 27% 0.00 in 116.0 W/m2
17:08 85.3 °F 46.6 °F 30.12 in ENE 6.9 mph 21.0 mph 26% 0.00 in 111.0 W/m2
17:13 84.9 °F 47.1 °F 30.12 in East 16.1 mph 17.0 mph 27% 0.00 in 109.0 W/m2
17:16 84.6 °F 46.9 °F 30.12 in East 6.9 mph 11.0 mph 27% 0.00 in 116.0 W/m2
17:18 84.4 °F 47.7 °F 30.12 in NE 13.0 mph 17.0 mph 28% 0.00 in 120.0 W/m2
17:20 84.4 °F 46.8 °F 29.65 in NE 4.0 mph 17.0 mph 27% 0.00 in 118.0 W/m2
17:26 84.0 °F 46.4 °F 30.12 in ESE 4.9 mph 15.0 mph 27% 0.00 in 109.0 W/m2
17:31 83.8 °F 46.2 °F 30.12 in NNE 4.0 mph 15.0 mph 27% 0.00 in 107.0 W/m2
17:33 83.7 °F 47.1 °F 30.12 in NNW 2.9 mph 10.0 mph 28% 0.00 in 165.0 W/m2
17:40 83.1 °F 51.8 °F 30.12 in ENE 10.1 mph 12.0 mph 34% 0.00 in 98.0 W/m2
17:45 82.6 °F 49.8 °F 30.13 in ESE 4.0 mph 13.0 mph 32% 0.00 in 221.0 W/m2
17:46 82.6 °F 49.8 °F 30.13 in ESE 2.9 mph 8.0 mph 32% 0.00 in 306.0 W/m2
17:47 82.6 °F 51.4 °F 30.13 in East 2.9 mph 8.0 mph 34% 0.00 in 329.0 W/m2
17:51 82.6 °F 49.8 °F 30.12 in NE 4.0 mph 12.0 mph 32% 0.00 in 427.0 W/m2
17:56 83.1 °F 48.6 °F 30.12 in SE 4.9 mph 8.0 mph 30% 0.00 in 413.0 W/m2
17:57 83.3 °F 47.7 °F 30.12 in ENE 8.1 mph 12.0 mph 29% 0.00 in 410.0 W/m2
18:03 83.8 °F 50.0 °F 30.12 in East 2.0 mph 9.0 mph 31% 0.00 in 390.0 W/m2
18:08 83.8 °F 49.1 °F 30.12 in ENE 6.9 mph 10.0 mph 30% 0.00 in 100.0 W/m2
18:13 83.3 °F 50.4 °F 30.13 in ESE 2.0 mph 10.0 mph 32% 0.00 in 334.0 W/m2
18:16 83.3 °F 51.3 °F 30.14 in NNE 0.9 mph 10.0 mph 33% 0.00 in 290.0 W/m2
18:17 83.3 °F 51.3 °F 30.14 in NNE 6.9 mph 10.0 mph 33% 0.00 in 248.0 W/m2
18:23 82.9 °F 50.9 °F 30.14 in NNW 6.0 mph 7.0 mph 33% 0.00 in 105.0 W/m2
18:27 82.4 °F 50.4 °F 29.68 in North 6.0 mph 7.0 mph 33% 0.00 in 84.0 W/m2
18:31 81.9 °F 50.7 °F 30.14 in NNW 6.0 mph 9.0 mph 34% 0.00 in 65.0 W/m2
18:32 81.9 °F 50.7 °F 30.14 in NW 2.9 mph 9.0 mph 34% 0.00 in 53.0 W/m2
18:38 81.3 °F 50.2 °F 30.15 in North 2.0 mph 4.0 mph 34% 0.00 in 33.0 W/m2
18:41 81.1 °F 50.2 °F 30.15 in NE 2.9 mph 4.0 mph 34% 0.00 in 30.0 W/m2
18:42 81.1 °F 50.2 °F 30.15 in ENE 2.0 mph 4.0 mph 34% 0.00 in 30.0 W/m2
18:48 81.0 °F 50.0 °F 30.15 in ENE 2.0 mph 6.0 mph 34% 0.00 in 19.0 W/m2
18:50 81.0 °F 50.0 °F 30.15 in Calm   4.0 mph 34% 0.00 in 14.0 W/m2
18:51 80.8 °F 49.8 °F 30.15 in ENE 0.9 mph 3.0 mph 34% 0.00 in 14.0 W/m2
18:56 80.8 °F 50.5 °F 30.16 in East 4.0 mph 5.0 mph 35% 0.00 in 9.0 W/m2
19:02 80.8 °F 50.5 °F 30.16 in Calm   1.0 mph 35% 0.00 in 7.0 W/m2
19:07 80.8 °F 49.8 °F 30.17 in Calm   1.0 mph 34% 0.00 in 5.0 W/m2
19:12 80.6 °F 49.6 °F 30.17 in Calm   1.0 mph 34% 0.00 in 5.0 W/m2
19:19 80.4 °F 49.5 °F 30.18 in West 2.0 mph 5.0 mph 34% 0.00 in 0.0 W/m2
19:21 80.6 °F 49.6 °F 30.18 in SSW 0.9 mph 2.0 mph 34% 0.00 in 0.0 W/m2
19:28 78.4 °F 52.2 °F 30.19 in SW 10.1 mph 12.0 mph 40% 0.00 in 0.0 W/m2
19:30 78.1 °F 52.5 °F 29.72 in SW 4.0 mph 7.0 mph 41% 0.00 in 0.0 W/m2
19:31 79.2 °F 52.2 °F 30.19 in SW 6.9 mph 11.0 mph 39% 0.00 in 0.0 W/m2
19:38 77.2 °F 52.9 °F 30.19 in SSW 6.9 mph 8.0 mph 43% 0.00 in 0.0 W/m2
19:44 76.5 °F 52.3 °F 30.19 in SSW 4.0 mph 7.0 mph 43% 0.00 in 0.0 W/m2
19:47 76.5 °F 52.3 °F 30.20 in West 0.9 mph 6.0 mph 43% 0.00 in 0.0 W/m2
19:53 76.1 °F 52.0 °F 30.20 in SW 0.9 mph 5.0 mph 43% 0.00 in 0.0 W/m2
19:58 75.7 °F 51.1 °F 30.20 in West 0.9 mph 7.0 mph 42% 0.00 in 0.0 W/m2
20:05 75.6 °F 50.9 °F 30.20 in WSW 2.0 mph 6.0 mph 42% 0.00 in 0.0 W/m2
20:11 75.6 °F 50.9 °F 30.21 in WSW 0.9 mph 4.0 mph 42% 0.00 in 0.0 W/m2
20:17 75.2 °F 51.1 °F 30.21 in Calm     43% 0.00 in 0.0 W/m2
20:22 75.0 °F 51.1 °F 30.21 in Calm   1.0 mph 43% 0.00 in 0.0 W/m2
20:27 75.0 °F 51.1 °F 30.22 in SE 2.0 mph 4.0 mph 43% 0.00 in 0.0 W/m2
20:32 75.0 °F 52.2 °F 30.22 in ESE 0.9 mph 6.0 mph 45% 0.00 in 0.0 W/m2
20:33 75.0 °F 52.2 °F 30.23 in Calm   5.0 mph 45% 0.00 in 0.0 W/m2
20:37 75.0 °F 51.6 °F 30.22 in ESE 0.9 mph 3.0 mph 44% 0.00 in 0.0 W/m2
20:38 75.0 °F 51.1 °F 30.22 in SE 2.0 mph 3.0 mph 43% 0.00 in 0.0 W/m2
20:40 75.0 °F 51.1 °F 30.22 in SSW 2.9 mph 6.0 mph 43% 0.00 in 0.0 W/m2
20:48 75.0 °F 50.4 °F 30.22 in SSW 4.9 mph 7.0 mph 42% 0.00 in 0.0 W/m2
20:54 75.2 °F 50.5 °F 30.21 in West 0.9 mph 4.0 mph 42% 0.00 in 0.0 W/m2
20:57 75.2 °F 50.5 °F 30.22 in Calm     42% 0.00 in 0.0 W/m2
21:03 75.4 °F 50.0 °F 30.22 in Calm     41% 0.00 in 0.0 W/m2
21:09 75.4 °F 50.7 °F 30.22 in Calm     42% 0.00 in 0.0 W/m2
21:15 75.4 °F 50.7 °F 30.22 in Calm     42% 0.00 in 0.0 W/m2
21:20 75.6 °F 50.9 °F 30.22 in West 0.9 mph 3.0 mph 42% 0.00 in 0.0 W/m2
21:25 75.6 °F 50.9 °F 30.22 in WNW 0.9 mph 1.0 mph 42% 0.00 in 0.0 W/m2
21:28 75.6 °F 50.9 °F 30.22 in WNW 0.9 mph 6.0 mph 42% 0.00 in 0.0 W/m2
21:32 75.6 °F 51.4 °F 30.23 in SSW 2.0 mph 2.0 mph 43% 0.00 in 0.0 W/m2
21:37 75.6 °F 50.9 °F 30.23 in Calm   2.0 mph 42% 0.00 in 0.0 W/m2
21:38 75.6 °F 50.9 °F 30.23 in Calm   2.0 mph 42% 0.00 in 0.0 W/m2
21:42 75.6 °F 48.9 °F 30.24 in SSE 4.0 mph 7.0 mph 39% 0.00 in 0.0 W/m2
21:43 75.6 °F 48.9 °F 30.23 in Calm   7.0 mph 39% 0.00 in 0.0 W/m2
21:47 75.6 °F 48.9 °F 30.23 in Calm   2.0 mph 39% 0.00 in 0.0 W/m2
21:51 75.6 °F 48.9 °F 30.23 in SSW 4.9 mph 7.0 mph 39% 0.00 in 0.0 W/m2
21:56 75.6 °F 49.5 °F 30.24 in SSW 0.9 mph 6.0 mph 40% 0.00 in 0.0 W/m2
22:01 75.2 °F 49.3 °F 30.23 in Calm   4.0 mph 40% 0.00 in 0.0 W/m2
22:03 75.0 °F 49.1 °F 30.23 in SW 2.0 mph 6.0 mph 40% 0.00 in 0.0 W/m2
22:06 74.8 °F 48.9 °F 30.23 in SSW 4.9 mph 5.0 mph 40% 0.00 in 0.0 W/m2
22:08 74.8 °F 49.6 °F 30.23 in SW 4.0 mph 4.0 mph 41% 0.00 in 0.0 W/m2
22:12 74.7 °F 49.5 °F 30.23 in ESE 2.0 mph 5.0 mph 41% 0.00 in 0.0 W/m2
22:17 74.7 °F 49.5 °F 30.23 in Calm   5.0 mph 41% 0.00 in 0.0 W/m2
22:24 74.7 °F 49.5 °F 30.23 in SSW 0.9 mph 3.0 mph 41% 0.00 in 0.0 W/m2
22:29 74.5 °F 49.3 °F 30.23 in Calm   2.0 mph 41% 0.00 in 0.0 W/m2
22:34 74.5 °F 49.3 °F 30.23 in SSW 0.9 mph 1.0 mph 41% 0.00 in 0.0 W/m2
22:40 74.3 °F 49.6 °F 30.23 in SE 2.0 mph 3.0 mph 42% 0.00 in 0.0 W/m2
22:44 74.1 °F 49.6 °F 30.23 in Calm   3.0 mph 42% 0.00 in 0.0 W/m2
22:47 74.1 °F 49.6 °F 30.23 in Calm   1.0 mph 42% 0.00 in 0.0 W/m2
22:51 73.9 °F 49.5 °F 30.23 in Calm     42% 0.00 in 0.0 W/m2
22:57 73.9 °F 49.5 °F 30.23 in Calm     42% 0.00 in 0.0 W/m2
23:00 73.8 °F 49.3 °F 30.23 in Calm   1.0 mph 42% 0.00 in 0.0 W/m2
23:05 73.8 °F 49.3 °F 30.23 in Calm     42% 0.00 in 0.0 W/m2
23:09 73.6 °F 49.1 °F 29.76 in Calm     42% 0.00 in 0.0 W/m2
23:10 73.6 °F 49.1 °F 29.76 in Calm     42% 0.00 in 0.0 W/m2
23:15 73.2 °F 49.5 °F 30.23 in Calm     43% 0.00 in 0.0 W/m2
23:20 73.0 °F 49.3 °F 30.23 in Calm   1.0 mph 43% 0.00 in 0.0 W/m2
23:25 72.7 °F 49.5 °F 30.23 in Calm   2.0 mph 44% 0.00 in 0.0 W/m2
23:30 72.3 °F 49.1 °F 30.23 in Calm   1.0 mph 44% 0.00 in 0.0 W/m2
23:34 72.1 °F 49.1 °F 30.23 in Calm   1.0 mph 44% 0.00 in 0.0 W/m2
23:35 72.1 °F 49.1 °F 30.23 in Calm   1.0 mph 44% 0.00 in 0.0 W/m2
23:40 72.0 °F 48.9 °F 30.23 in Calm   1.0 mph 44% 0.00 in 0.0 W/m2
23:43 71.8 °F 49.3 °F 30.23 in Calm   1.0 mph 45% 0.00 in 0.0 W/m2
23:44 71.8 °F 49.3 °F 29.76 in Calm   1.0 mph 45% 0.00 in 0.0 W/m2
23:46 71.6 °F 49.1 °F 29.75 in East 2.0 mph 2.0 mph 45% 0.00 in 0.0 W/m2
23:47 71.4 °F 48.9 °F 30.22 in Calm   2.0 mph 45% 0.00 in 0.0 W/m2
23:50 71.6 °F 49.1 °F 30.23 in Calm   1.0 mph 45% 0.00 in 0.0 W/m2
23:56 71.2 °F 50.0 °F 30.22 in Calm   1.0 mph 47% 0.00 in 0.0 W/m2
23:57 71.1 °F 49.8 °F 30.22 in Calm   1.0 mph 47% 0.00 in 0.0 W/m2
Olympia, Windhoek, Namibia
Compliments of Weather Underground - 3.75 mb